FW6799 Weather Reports


Display with metric or nautical units.
time (UTC)temp
F
wind
direction
speed
MPH
gust
MPH
rain 1hr
in
rain 24hr
in
rain mn
in
humidity
%
barometer
mb
20260506174556 73 107 10.0 17.0 0.00 0.00 0.00 33 1018.0
20260506173106 73 85 9.0 19.0 0.00 0.00 0.00 33 1018.1
20260506171558 73 95 11.0 21.0 0.00 0.00 0.00 33 1018.1
20260506170052 74 88 12.0 22.0 0.00 0.00 0.00 32 1018.1
20260506164551 74 99 14.0 23.0 0.00 0.00 0.00 32 1018.1
20260506163052 75 113 14.0 26.0 0.00 0.00 0.00 32 1018.2
20260506161557 75 97 12.0 24.0 0.00 0.00 0.00 32 1018.1
20260506160107 76 81 13.0 19.0 0.00 0.00 0.00 32 1018.2
20260506154552 76 93 12.0 25.0 0.00 0.00 0.00 32 1018.1
20260506153046 76 83 12.0 20.0 0.00 0.00 0.00 32 1017.8
20260506151554 76 92 9.0 18.0 0.00 0.00 0.00 33 1017.8
20260506150048 77 88 10.0 15.0 0.00 0.00 0.00 33 1017.9
20260506144553 77 93 12.0 20.0 0.00 0.00 0.00 33 1018.0
20260506143054 78 94 15.0 24.0 0.00 0.00 0.00 32 1017.8
20260506141552 78 70 14.0 21.0 0.00 0.00 0.00 32 1018.0
20260506140051 78 94 12.0 20.0 0.00 0.00 0.00 32 1017.7
20260506134614 78 95 10.0 18.0 0.00 0.00 0.00 33 1017.6
20260506133051 78 101 10.0 16.0 0.00 0.00 0.00 34 1017.5
20260506131605 78 122 10.0 16.0 0.00 0.00 0.00 34 1017.5
20260506130050 77 104 8.0 15.0 0.00 0.00 0.00 35 1017.3
20260506124551 78 98 9.0 14.0 0.00 0.00 0.00 35 1017.3
20260506123142 77 89 6.0 13.0 0.00 0.00 0.00 36 1017.2
20260506121601 78 127 5.0 11.0 0.00 0.00 0.00 37 1017.0
20260506120053 78 108 5.0 9.0 0.00 0.00 0.00 37 1016.9
20260506114552 78 93 5.0 10.0 0.00 0.00 0.00 37 1016.8
20260506113047 79 111 7.0 11.0 0.00 0.00 0.00 38 1016.7
20260506111604 79 169 4.0 12.0 0.00 0.00 0.00 38 1016.7
20260506110051 79 112 6.0 12.0 0.00 0.00 0.00 38 1016.4
20260506104551 79 96 4.0 10.0 0.00 0.00 0.00 38 1016.1
20260506103045 80 111 5.0 10.0 0.00 0.00 0.00 37 1016.0
20260506101546 80 147 5.0 10.0 0.00 0.00 0.00 37 1015.7
20260506100049 81 92 5.0 10.0 0.00 0.00 0.00 36 1015.5
20260506094550 82 129 5.0 13.0 0.00 0.00 0.00 36 1015.5
20260506093052 82 112 9.0 16.0 0.00 0.00 0.00 35 1015.3
20260506091549 83 101 8.0 15.0 0.00 0.00 0.00 34 1015.2
20260506090053 84 94 11.0 17.0 0.00 0.00 0.00 33 1015.2
20260506084550 84 97 12.0 19.0 0.00 0.00 0.00 33 1015.0
20260506083109 85 58 9.0 17.0 0.00 0.00 0.00 32 1014.9
20260506081550 85 70 10.0 16.0 0.00 0.00 0.00 33 1014.7
20260506073053 87 106 11.0 19.0 0.00 0.00 0.00 31 1014.6
20260506071553 87 66 12.0 19.0 0.00 0.00 0.00 31 1014.5
20260506061549 87 143 10.0 19.0 0.00 0.00 0.00 31 1014.8
20260506044648 86 63 8.0 19.0 0.00 0.00 0.00 31 1015.7
20260506043045 84 117 8.0 23.0 0.00 0.00 0.00 30 1015.8
20260506041552 85 86 10.0 18.0 0.00 0.00 0.00 31 1016.0
20260506040047 84 110 8.0 19.0 0.00 0.00 0.00 30 1016.4
20260506034551 83 100 11.0 18.0 0.00 0.00 0.00 31 1016.6
20260506033047 82 87 15.0 21.0 0.00 0.00 0.00 30 1016.7
20260506031544 82 81 9.0 22.0 0.00 0.00 0.00 29 1016.9
20260506030047 81 79 13.0 20.0 0.00 0.00 0.00 29 1017.4
20260506024550 80 94 12.0 19.0 0.00 0.00 0.00 30 1017.7
20260506023047 80 139 13.0 20.0 0.00 0.00 0.00 29 1017.7
20260506021544 79 82 15.0 23.0 0.00 0.00 0.00 30 1017.9
20260506020048 79 118 13.0 22.0 0.00 0.00 0.00 29 1018.0
20260506014557 78 93 13.0 24.0 0.00 0.00 0.00 29 1018.1
20260506013049 77 102 13.0 27.0 0.00 0.00 0.00 30 1018.0
20260506011617 76 94 14.0 24.0 0.00 0.00 0.00 30 1018.1
20260506010048 74 82 13.0 25.0 0.00 0.00 0.00 31 1018.0
20260506004602 72 99 11.0 20.0 0.00 0.00 0.00 32 1017.8
20260506003049 71 100 11.0 22.0 0.00 0.00 0.00 32 1017.9
20260506001546 70 151 10.0 20.0 0.00 0.00 0.00 33 1017.7
20260506000154 69 125 10.0 22.0 0.00 0.00 0.00 34 1017.6
20260505234559 67 120 12.0 19.0 0.00 0.00 0.00 35 1017.4
20260505233059 66 128 10.0 18.0 0.00 0.00 0.00 37 1017.4
20260505231559 65 164 9.0 17.0 0.00 0.00 0.00 38 1017.5
20260505230117 64 134 12.0 17.0 0.00 0.00 0.00 38 1017.3
20260505224611 63 141 9.0 16.0 0.00 0.00 0.00 38 1017.1
20260505223222 63 136 8.0 16.0 0.00 0.00 0.00 39 1017.0
20260505221601 63 135 7.0 16.0 0.00 0.00 0.00 38 1016.9
20260505220050 63 101 9.0 15.0 0.00 0.00 0.00 38 1016.7
20260505214657 63 138 7.0 17.0 0.00 0.00 0.00 38 1016.5
20260505213100 63 131 10.0 17.0 0.00 0.00 0.00 38 1016.6
20260505210248 64 138 11.0 21.0 0.00 0.00 0.00 37 1016.4
20260505204613 64 147 13.0 20.0 0.00 0.00 0.00 36 1016.4
20260505203102 64 121 12.0 18.0 0.00 0.00 0.00 36 1016.4
20260505201620 64 172 10.0 14.0 0.00 0.00 0.00 36 1016.4
20260505200050 64 114 10.0 15.0 0.00 0.00 0.00 36 1016.4
20260505194620 65 126 9.0 16.0 0.00 0.00 0.00 36 1016.4
20260505193106 65 141 10.0 18.0 0.00 0.00 0.00 35 1016.3
20260505191612 65 170 10.0 16.0 0.00 0.00 0.00 35 1016.3
20260505190054 65 131 11.0 20.0 0.00 0.00 0.00 35 1016.3
20260505184610 65 172 9.0 16.0 0.00 0.00 0.00 34 1016.3
20260505183055 65 159 8.0 16.0 0.00 0.00 0.00 34 1016.5
20260505181624 66 139 9.0 16.0 0.00 0.00 0.00 34 1016.6
20260505180109 66 128 11.0 19.0 0.00 0.00 0.00 33 1016.6